W4CAT-13 Weather Reports


time (UTC)temp
F
wind
direction
speed
knots
gust
knots
rain 1hr
in
rain 24hr
in
rain mn
in
humidity
%
barometer
mb
20260504040834 57 215 2.6 4.3 0.00 0.00 0.00 50 978.3
20260504035305 58 227 1.7 5.2 0.00 0.00 0.00 50 978.3
20260504033734 58 232 6.1 7.8 0.00 0.00 0.00 50 978.0
20260504032204 58 217 6.1 6.1 0.00 0.00 0.00 48 978.0
20260504030634 59 233 7.8 8.7 0.00 0.00 0.00 47 978.0
20260504025104 60 217 4.3 6.1 0.00 0.00 0.00 44 978.7
20260504023534 60 240 4.3 6.1 0.00 0.00 0.00 43 978.7
20260504022004 60 234 5.2 5.2 0.00 0.00 0.00 43 978.7
20260504020434 60 243 2.6 4.3 0.00 0.00 0.00 43 978.7
20260504014904 60 244 2.6 5.2 0.00 0.00 0.00 43 978.0
20260504013334 60 248 2.6 4.3 0.00 0.00 0.00 43 978.0
20260504011804 60 240 2.6 5.2 0.00 0.00 0.00 43 978.0
20260504010234 60 241 2.6 4.3 0.00 0.00 0.00 43 978.0
20260504004734 61 241 1.7 4.3 0.00 0.00 0.00 43 977.6
20260504003204 61 240 2.6 4.3 0.00 0.00 0.00 43 977.9
20260504001634 62 225 1.7 2.6 0.00 0.00 0.00 42 978.0
20260504000104 62 233 1.7 2.6 0.00 0.00 0.00 40 978.0
20260503234533 63 240 2.6 4.3 0.00 0.00 0.00 39 978.3
20260503233004 64 258 1.7 5.2 0.00 0.00 0.00 38 978.7
20260503231433 64 245 0.9 6.1 0.00 0.00 0.00 37 978.7
20260503225903 64 160 0.0 4.3 0.00 0.00 0.00 37 979.0
20260503224333 64 234 5.2 7.0 0.00 0.00 0.00 35 979.3
20260503222833 65 273 1.7 1.7 0.00 0.00 0.00 38 979.3
20260503221333 65 247 4.3 5.2 0.00 0.00 0.00 36 979.3
20260503215803 66 250 4.3 7.0 0.00 0.01 0.00 37 979.7
20260503214233 65 248 4.3 7.8 0.00 0.08 0.00 35 980.0
20260503212703 65 233 5.2 5.2 0.00 0.08 0.00 37 980.0
20260503211133 65 20 0.0 4.3 0.00 0.08 0.00 35 980.4
20260503205604 66 225 1.7 2.6 0.00 0.08 0.00 34 980.4
20260503204033 65 269 1.7 2.6 0.00 0.08 0.00 37 981.0
20260503202503 64 200 0.0 1.7 0.00 0.08 0.00 36 981.0
20260503200933 65 214 2.6 7.8 0.00 0.08 0.00 35 981.4
20260503195403 65 103 1.7 2.6 0.00 0.08 0.00 37 981.7
20260503194157 64 232 4.3 7.0 0.00 0.08 0.00 36 982.1
20260503194001 64 232 4.3 7.0 0.00 0.08 0.00 36 982.1
20260503193833 64 232 4.3 7.0 0.00 0.08 0.00 36 982.1
20260503192305 64 231 2.6 6.1 0.00 0.08 0.00 35 982.1
20260503190733 63 24 0.9 1.7 0.00 0.08 0.00 36 982.4
20260503185203 62 220 2.6 7.0 0.00 0.08 0.00 35 982.4
20260503183633 62 157 2.6 5.2 0.00 0.08 0.00 39 982.7
20260503182103 61 250 4.3 7.0 0.00 0.08 0.00 36 982.7
20260503180533 61 256 1.7 7.0 0.00 0.08 0.00 37 983.1
20260503175003 60 242 5.2 7.0 0.00 0.08 0.00 40 983.2
20260503173433 61 241 4.3 4.3 0.00 0.08 0.00 41 983.4
20260503171903 60 245 2.6 6.1 0.00 0.08 0.00 39 983.7
20260503170333 59 230 4.3 6.1 0.00 0.08 0.00 38 983.9
20260503160133 57 245 1.7 5.2 0.00 0.08 0.00 44 984.4
20260503131133 47 218 1.7 1.7 0.00 0.08 0.00 81 984.4
20260503090403 42 80 0.9 1.7 0.00 0.08 0.00 96 982.7
20260503080232 42 78 0.0 1.7 0.00 0.08 0.00 98 982.7
20260503071603 43 42 1.7 1.7 0.00 0.08 0.00 98 982.7
20260503054332 44 103 0.9 2.6 0.00 0.08 0.00 97 982.4
20260503052802 44 110 1.7 1.7 0.00 0.08 0.00 97 982.4
20260503051232 44 100 0.0 1.7 0.00 0.08 0.00 97 982.7
20260503045703 44 62 2.6 4.3 0.00 0.08 0.08 97 982.1
20260503044132 44 135 1.7 1.7 0.00 0.08 0.08 97 982.1
20260503042602 44 93 0.9 1.7 0.00 0.08 0.08 97 982.1